Flag for Dominican Republic Weather past 2 weeks in Santiago de los Caballeros, Dominican Republic

Now
75 °F

Passing clouds.


Feels Like: 75 °F
Forecast: 72 / 94 °F
Wind: No wind

Location: Santiago

Current Time: Apr 27, 2015 at 4:11:45 AM

Latest Report: Apr 27, 2015 at 3:00 AM


Visibility: N/A

Pressure: 30.01 "Hg

Humidity: 83%

Dew point: 70 °F

Location of Santiago de los CaballerosLocation

Historic Weather in Santiago de los Caballeros — Graph

°F

Santiago de los Caballeros temperature yesterday

Maximum temperature yesterday: 95 °F (at 3:00 PM)
Minimum temperature yesterday: 73 °F (at 5:00 AM)
Average temperature yesterday: 82 °F

Past Weeks' High & Low Weather Summary

 TemperatureHumidityPressure
High95 °F (Apr 26, 3:00 PM)100% (Apr 12, 8:00 AM)30.21 "Hg (Apr 12, 8:00 AM)
Low66 °F (Apr 12, 8:00 AM)36% (Apr 26, 3:00 PM)29.83 "Hg (Apr 25, 5:00 PM)
Average80 °F71%29.98 "Hg
* Reported Apr 12 3:00 AM — Apr 27 3:00 AM, Santiago de los Caballeros, Weather by CustomWeather, © 2015

Note: Actual official high and low records may vary slightly from our data, if they occured in-between our weather recording intervals... More about our weather records

Advertising

Santiago de los Caballeros weather history for previous 24 hours

 ConditionsComfort  
Time TempWeatherWind HumidityBarometerVisibility
3:00 AM
Mon, Apr 27
75 °FPassing clouds.No wind83%30.01 "HgN/A
2:00 AM75 °FPassing clouds.5 mph89%29.89 "HgN/A
1:00 AM77 °FPassing clouds.5 mph83%29.98 "HgN/A
12:00 AM77 °FPassing clouds.No wind83%30.01 "HgN/A
11:00 PM
Sun, Apr 26
79 °FPassing clouds.5 mph79%29.92 "HgN/A
10:00 PM79 °FPassing clouds.7 mph79%29.92 "HgN/A
9:00 PM82 °FPassing clouds.10 mph66%29.89 "HgN/A
8:00 PM86 °FPassing clouds.9 mph59%29.86 "HgN/A
7:00 PM88 °FPartly sunny.5 mph52%29.86 "HgN/A
6:00 PM91 °FPassing clouds.16 mph41%29.83 "HgN/A
5:00 PM93 °FScattered clouds.14 mph39%29.83 "HgN/A
4:00 PM93 °FPartly sunny.13 mph39%29.83 "HgN/A
3:00 PM95 °FScattered clouds.8 mph36%29.83 "HgN/A
2:00 PM93 °FPassing clouds.14 mph41%29.86 "HgN/A
1:00 PM91 °FSunny.13 mph46%29.89 "Hg10 mi
12:00 PM90 °FSunny.17 mph43%29.89 "Hg10 mi
11:00 AM84 °FSunny.7 mph58%29.92 "Hg10 mi
10:00 AM82 °FSunny.5 mph62%29.92 "Hg10 mi
9:00 AM79 °FPassing clouds.6 mph74%29.92 "HgN/A
8:00 AM73 °FScattered clouds.No wind94%29.92 "HgN/A
7:00 AM73 °FPassing clouds.No wind89%29.92 "HgN/A
6:00 AM73 °FPassing clouds.No wind89%29.89 "HgN/A
5:00 AM73 °FPassing clouds.5 mph89%29.89 "HgN/A
4:00 AM75 °FPassing clouds.No wind83%29.89 "HgN/A
Weather by CustomWeather, © 2015

See weather overviewHow to use our weather pages